Regional Weather Roundup
Issued by NWS

Home | Current Version | Previous Version | Graphics & Text | Print | Product List | Glossary On
Versions: 1 2 3 4 5 6 7 8 9 10 11 12 13 14 15 16 17 18 19 20 21 22 23 24 25 26 27 28 29 30 31 32 33 34 35 36 37 38 39 40 41 42 43 44 45 46 47 48 49 50
951
ASUS45 KCYS 061310
RWRWY

WYOMING REGIONAL WEATHER ROUNDUP
NATIONAL WEATHER SERVICE CHEYENNE WY
600 AM MST SAT FEB 06 2016

NOTE:  "FAIR" INDICATES FEW OR NO CLOUDS BELOW 12,000 FEET
WITH NO SIGNIFICANT WEATHER AND/OR OBSTRUCTIONS TO VISIBILITY.

WYZ001-061400-
YELLOWSTONE NATIONAL PARK

CITY           SKY/WX    TMP DP  RH WIND       PRES   REMARKS
LK YELLOWSTONE   N/A     21  17  84 VRB6      30.32S WCI  13
W YELLOWSTONE  NOT AVBL

$$
WYZ002>013-054>058-071-098>099-061400-
NORTHERN WYOMING

CITY           SKY/WX    TMP DP  RH WIND       PRES   REMARKS
JACKSON        CLOUDY    18  18 100 S7        30.37F WCI   8
CODY           FAIR      39  18  41 W15G28    30.10F WCI  31
GREYBULL       FAIR      17  13  84 CALM      30.20F
WORLAND        FAIR      17  13  84 CALM      30.20S
SHERIDAN       CLEAR     28  16  59 NE2       29.98F
BUFFALO        FAIR      34  18  52 NW3       30.02S
GILLETTE       FAIR      32  18  56 SW18G28   30.02F WCI  20
HULETT         FAIR      32  18  55 SW12      30.03F WCI  23
NEWCASTLE      FAIR      19  14  79 NE5       30.12R WCI  13

$$
WYZ014>020-022>026-101>103-061400-
CENTRAL WYOMING

CITY           SKY/WX    TMP DP  RH WIND       PRES   REMARKS
BIG PINEY      FAIR       7   3  84 W3        30.37S
PINEDALE       FAIR      14  12  92 W10       30.36S WCI   1
DUBOIS         FAIR      23  14  68 NW20G32   30.25R WCI   8
LANDER         FAIR      21   9  59 NW3       30.19S
RIVERTON       FAIR      17   9  70 CALM      30.20S
CASPER         FAIR      24  17  74 SW32G44   30.18F HAZE    WCI   6
DOUGLAS        FAIR      31  18  58 W15G24      N/A  WCI  20

$$
WYZ021-027>030-104>119-061400-
SOUTHERN WYOMING

CITY           SKY/WX    TMP DP  RH WIND       PRES   REMARKS
EVANSTON       FAIR      13   9  84 S12       30.42F WCI  -1
FORT BRIDGER   SUNNY     21  14  73 W17       30.44R WCI   7
ROCK SPRINGS   FAIR      19  13  77 W29       30.38R WCI   0
DIXON          FAIR       1  -3  85 CALM      30.46S
RAWLINS        FAIR      20  11  68 VRB6      30.31F WCI  12
SARATOGA       FAIR      14   9  79 S15       30.34F WCI  -1
LARAMIE        FAIR      19   9  65 SW20G30   30.23S WCI   3
CHEYENNE       FAIR      30  14  51 NW20G30   30.13F WCI  17
TORRINGTON     FAIR      29  17  61 NW8       30.15F WCI  21
PINE BLUFFS    FAIR      27  14  59 W12       30.18S WCI  16

$$




USA.gov is the U.S. government's official web portal to all federal, state and local government web resources and services.